Home > Weather > Sedona > Past weeks

Flag for USA Past Weather in Sedona, Arizona, USA — Yesterday and Last 2 Weeks

Now
86 °F

Sunny.


Feels Like: 83 °F
Forecast: 62 / 91 °F
Wind: 9 mph from Northwest

Location: Sedona Airport

Current Time: May 31, 2016 at 6:45:28 PM

Latest Report: May 31, 2016 at 6:15 PM


Visibility: 10 mi

Pressure: 29.89 "Hg (25.87 "Hg at 1282m altitude)

Humidity: 11%

Dew Point: 25 °F

Location of SedonaLocation

Past Weather in Sedona — Graph

°F

Sedona Temperature Yesterday

Maximum temperature yesterday: 86 °F (at 1:35 PM)
Minimum temperature yesterday: 57 °F (at 3:30 AM)
Average temperature yesterday: 71 °F

High & Low Weather Summary for the Past Weeks

 TemperatureHumidityPressure
High86 °F (May 28, 2:15 PM)82% (May 18, 6:55 AM)30.14 "Hg (May 18, 6:55 AM)
Low50 °F (May 18, 6:55 AM)7% (May 29, 4:55 PM)29.85 "Hg (May 16, 5:15 PM)
Average66 °F28%29.99 "Hg
* Reported May 16 5:15 PM — May 31 5:15 PM, Sedona, Weather by CustomWeather, © 2016

Note: Actual official high and low records may vary slightly from our data, if they occured in-between our weather recording intervals... More about our weather records

Advertising

Sedona Weather History for the Previous 24 Hours

Scroll right to see more
 ConditionsComfort  
Time TempWeatherWind HumidityBarometerVisibility
5:15 PM
Tue, May 31
84 °FSunny.6 mph11%29.89 "Hg10 mi
4:55 PM86 °FSunny.10 mph11%29.89 "Hg10 mi
4:35 PM86 °FSunny.12 mph10%29.89 "Hg10 mi
4:15 PM86 °FSunny.12 mph10%29.89 "Hg10 mi
3:55 PM82 °FSunny.8 mph11%29.91 "Hg10 mi
3:35 PM86 °FSunny.13 mph10%29.91 "Hg10 mi
3:15 PM84 °FSunny.8 mph10%29.91 "Hg10 mi
2:55 PM82 °FSunny.5 mph10%29.92 "Hg10 mi
2:15 PM82 °FSunny.6 mph10%29.94 "Hg10 mi
1:55 PM86 °FSunny.No wind10%29.95 "Hg10 mi
1:15 PM82 °FSunny.6 mph11%29.96 "Hg10 mi
12:55 PM82 °FSunny.6 mph11%29.97 "Hg10 mi
12:35 PM82 °FSunny.3 mph11%29.98 "Hg10 mi
12:15 PM82 °FSunny.3 mph11%29.98 "Hg10 mi
11:55 AM82 °FSunny.9 mph11%29.99 "Hg10 mi
11:35 AM82 °FSunny.5 mph11%29.99 "Hg10 mi
11:15 AM82 °FSunny.5 mph11%30.00 "Hg10 mi
10:55 AM82 °FSunny.8 mph11%30.00 "Hg10 mi
10:15 AM81 °FSunny.5 mph12%30.01 "Hg10 mi
9:55 AM79 °FSunny.No wind12%30.01 "Hg10 mi
9:35 AM77 °FSunny.6 mph14%30.02 "Hg7 mi
9:15 AM75 °FSunny.3 mph15%30.02 "Hg5 mi
8:55 AM73 °FSunny.3 mph16%30.02 "Hg5 mi
8:15 AM68 °FSunny.5 mph18%30.02 "Hg4 mi
7:55 AM70 °FSunny.5 mph17%30.02 "Hg5 mi
7:35 AM66 °FSunny.3 mph18%30.02 "Hg4 mi
7:15 AM64 °FSunny.7 mph19%30.02 "Hg5 mi
6:55 AM63 °FSunny.13 mph20%30.02 "Hg5 mi
6:15 AM63 °FSunny.8 mph19%30.00 "Hg5 mi
5:55 AM59 °FSunny.10 mph21%30.00 "Hg5 mi
5:35 AM59 °FSunny.12 mph21%30.00 "Hg5 mi
5:15 AM61 °FSunny.12 mph20%29.99 "Hg5 mi
4:55 AM61 °FClear.13 mph20%29.98 "Hg10 mi
4:35 AM61 °FClear.14 mph20%29.98 "Hg10 mi
4:15 AM61 °FClear.13 mph20%29.98 "Hg10 mi
3:55 AM61 °FClear.14 mph20%29.98 "Hg10 mi
3:15 AM61 °FPassing clouds.14 mph22%29.98 "Hg10 mi
2:55 AM61 °FPassing clouds.16 mph22%29.98 "Hg10 mi
2:35 AM61 °FClear.13 mph22%29.98 "Hg10 mi
2:15 AM61 °FClear.14 mph22%29.99 "Hg10 mi
1:55 AM61 °FClear.14 mph23%29.99 "Hg10 mi
1:35 AM61 °FClear.13 mph23%29.99 "Hg10 mi
1:15 AM63 °FClear.13 mph22%29.99 "Hg10 mi
12:55 AM61 °FClear.12 mph23%29.99 "Hg10 mi
12:15 AM64 °FClear.13 mph21%30.00 "Hg10 mi
11:55 PM
Mon, May 30
63 °FClear.10 mph22%30.00 "Hg10 mi
11:35 PM64 °FClear.10 mph21%30.00 "Hg10 mi
11:15 PM64 °FClear.8 mph21%30.01 "Hg10 mi
10:55 PM68 °FClear.No wind17%30.02 "Hg10 mi
10:35 PM68 °FClear.3 mph16%30.02 "Hg10 mi
10:15 PM68 °FClear.3 mph17%30.02 "Hg10 mi
9:55 PM68 °FClear.3 mph14%30.02 "Hg10 mi
9:15 PM70 °FClear.No wind17%30.02 "Hg10 mi
8:55 PM70 °FClear.6 mph17%30.00 "Hg10 mi
8:15 PM72 °FClear.3 mph14%30.00 "Hg10 mi
7:55 PM72 °FClear.No wind14%29.99 "Hg10 mi
7:15 PM73 °FSunny.7 mph13%29.98 "Hg10 mi
6:55 PM75 °FSunny.5 mph12%29.96 "Hg10 mi
6:35 PM77 °FSunny.7 mph11%29.97 "Hg10 mi
6:15 PM79 °FSunny.5 mph12%29.96 "Hg10 mi
Weather by CustomWeather, © 2016

See weather overviewHow to use our weather pages